Location: Arrodets-la-Barthe
(43.0306°N, 0.2829°E)
Time: 05:27:14
(UTC+00:00)

UKube-1 - Pass Details

Date: 11 April 2023
Orbit: 602 x 605 km, 98.3° (Epoch: 01 June)

Event Time Altitude Azimuth Distance (km) Brightness Sun altitude
Rises 23:17:30 0° 13° (NNE) 2,869 ? -37.6°
Reaches altitude 10° 23:19:41 10° 13° (NNE) 1,962 ? -37.7°
Enters shadow 23:19:56 12° 13° (NNE) 1,862 ? -37.7°
